Regional Weather Roundup
Issued by NWS

Home | Current Version | Previous Version | Graphics & Text | Print | Product List | Glossary On
Versions: 1 2 3 4 5 6 7 8 9 10 11 12 13 14 15 16 17 18 19 20 21 22 23 24 25 26 27 28 29 30 31 32 33 34 35 36 37 38 39 40 41 42 43 44 45 46 47 48 49 50
000
ASUS44 KMEG 260200
RWRTN
TENNESSEE HOURLY STATE WEATHER ROUNDUP
NATIONAL WEATHER SERVICE MEMPHIS TN
800 PM CST SUN JAN 25 2015

TNZ002-004-019-021-049-052-054-088>092-260300-
WEST TENNESSEE

CITY           SKY/WX    TMP DP  RH WIND       PRES   REMARKS
MEMPHIS INTL   CLOUDY    45  35  68 NW15G23   29.87R
NWS MEMPHIS      N/A     44 N/A N/A MISG        N/A
JACKSON        CLOUDY    46  39  76 W14       29.80R
DYERSBURG      CLOUDY    45  28  53 W12G18    29.83R
UNION CITY     CLOUDY    43  43 100 NW15      29.77R
PARIS          CLOUDY    43  39  87 W12       29.76R
LEXINGTON      MOCLDY    43  41  93 W8        29.76R
SAVANNAH       CLOUDY    43  43 100 W5        29.80R
$$

TNZ008-025-027-028-033-062-065-066-260300-
NORTH MIDDLE TENNESSEE

CITY           SKY/WX    TMP DP  RH WIND       PRES   REMARKS
NASHVILLE      CLOUDY    47  42  83 VRB5      29.71S
CLARKSVILLE    LGT RAIN  44  41  89 W12       29.70S
COOKEVILLE     MOCLDY    45  43  93 W7        29.70R
CROSSVILLE     CLOUDY    43  38  82 SW7G17    29.70R
$$

TNZ061-075-076-078-094-096-097-260300-
SOUTH MIDDLE TENNESSEE

CITY           SKY/WX    TMP DP  RH WIND       PRES   REMARKS
FAYETTEVILLE   CLOUDY    45  39  81 MISG      29.74R
TULLAHOMA      MOCLDY    43  39  87 W3        29.73F
WINCHESTER     MOCLDY    43  39  87 NW6       29.74R
SHELBYVILLE    CLOUDY    43  43 100 S5        29.74S
$$

TNZ017-018-042-046-047-260300-
NORTHEAST TENNESSEE

CITY           SKY/WX    TMP DP  RH WIND       PRES   REMARKS
TRI CITIES     CLOUDY    46  34  62 SE5       29.72S
ELIZABETHTON   CLOUDY    39  36  87 E5        29.73R
$$

TNZ012-013-036-069-073-074-260300-
CENTRAL EAST TENNESSEE

CITY           SKY/WX    TMP DP  RH WIND       PRES   REMARKS
KNOXVILLE      CLOUDY    48  36  63 S8        29.71F
OAK RIDGE      CLOUDY    51  36  56 VRB3      29.72F
GATLINBURG     CLOUDY    46  34  61 S3        29.71F
$$

TNZ083-085-099-260300-
SOUTHEAST TENNESSEE

CITY           SKY/WX    TMP DP  RH WIND       PRES   REMARKS
CHATTANOOGA    LGT RAIN  50  40  68 NW12      29.73R
$$

SKY/WX REPORTED AS FAIR MEANS FEW OR NO CLOUDS BELOW
12 THOUSAND FEET.




USA.gov is the U.S. government's official web portal to all federal, state and local government web resources and services.